TJS-17 AKM, 63629

Orbit data source: Space-Track

TJS-17 AKM, 63629 is space debris in GEO originally from a launch on Thu, 10 Apr 2025 UTC launched from the Xichang Space Center, China (XSC). Debris objects in space refer to the collection of defunct objects orbiting the Earth. Examples of debris include non-operational satellites, rocket bodies, and fragments generated from explosions, collisions, or faulty payload assembly.

Not visible in the next 10 days
Identifier
63629, 2025-073C
Orbit
GEO
Country
Flag of CNCN / PRC
Related business
Manufacturer
CAST
Mission
Spacecraft
Bus & Motor
Unknown
Mass
~500 kg wet, ~500 kg dry
Launch date (UTC)
2025-04-10 (7 months ago)
Launch vehicle
Unknown
Launch site
Xichang Space Center, China (XSC)
Object type
Payload
Rocket body
Debris
Shape & HBR
Box, 8.0 m
Radar Cross Section
1.500 m²

Expand to show TLE details & history
Last TLE update: 21 hours ago

TLE from 21 hours ago
0 TJS-17 AKM
1 63629U 25073C   25312.35600071 -.00000146  00000-0  00000+0 0  9999
2 63629   0.5059  83.4817 0011253  95.8391 180.7084  0.98863046  2054
Epoch: 2025-11-08T08:32Z
TLE epoch observation values (Epoch: 2025-11-08T08:32:38.461Z)
Latitude
-0.48068°
Longitude
-175.94675°
Altitude
36,233.62 km
Speed
3.057 km/s
True Right ascension
00h 00m 00s
True Declination
0° 28' 49"
Sunlit
Object was in daylight at epoch
Visualization orbit readout
Latitude
Unknown
Longitude
Unknown
Altitude
Unknown
Speed
Unknown
Apparent Right ascension
Unknown
Apparent Declination
Unknown
Sunlit
N/A
Visualization observer readout
Local Sidereal Time
01:58:03
Azimuth
Unknown
Elevation
Unknown
Doppler factor
Unknown
Orbital elements
Apogee altitude
36,235.157 km
Perigee altitude
36,139.36 km
Semi-major axis
42,565.395 km
Eccentricity
0.00113
Inclination
0.5059°
RAAN
83.4817°
Arg. of periapsis
95.8391°
True anomaly
180.70681°
Mean anomaly
180.7084°
Eccentric anomaly
180.7076°
Mean motion
0.24715 °/min
Orbital period
1,456.61 mins
BSTAR
0
Loading maneuver chart data...
Computing Atmospheric mass density...
Loading historical data...
Loading historical data...
Loading historical data...
Loading historical data...
Loading historical data...
Loading historical data...
Loading historical data...
Other satellites on launch #73 in the year 2025 (2025-04-10 UTC)

Documentation

Showing up to 5 results
|